Hourly Data Report for May 16, 2019

MIRAMICHI RCS
NEW BRUNSWICK
Current Station Operator: ECCC - MSC

47°00'34.000" N
65°27'54.000" W
33.00 m
8100989
71744
ACQ

Download Data

Hourly Data (May 2019)
Hourly Data Report for May 16, 2019
TIME
LST
Temp Definition
°C
Dew Point Definition
°C
Rel Hum Definition
%
Precip. Amount Definition
mm

Wind Dir Definition
10's deg

Wind Spd Definition
km/h
Visibility Definition
km
Stn Press Definition
kPa
Hmdx Definition


Wind Chill Definition


Weather Definition


00:00 2.3 1.3 93 0.0 1 9   100.10     LegendNANA
01:00 1.7 0.8 94 0.6 35 8   100.10     LegendNANA
02:00 1.7 0.9 95 1.1 34 4   100.07     LegendNANA
03:00 2.5 1.8 95 0.9 35 4   100.08     LegendNANA
04:00 2.0 1.0 93 0.9 35 8   100.10     LegendNANA
05:00 2.0 1.1 94 0.3 34 7   100.13     LegendNANA
06:00 2.6 1.7 94 0.0 33 6   100.18     LegendNANA
07:00 3.9 2.6 92 0.0 34 8   100.24     LegendNANA
08:00 4.2 2.0 86 0.0 3 9   100.28     LegendNANA
09:00 5.0 2.2 82 0.0 2 8   100.32     LegendNANA
10:00 4.4 2.8 89 0.3 3 9   100.37     LegendNANA
11:00 5.3 3.4 88 0.6 35 5   100.39     LegendNANA
12:00 5.9 3.1 83 0.0 5 10   100.42     LegendNANA
13:00 7.3 4.5 82 0.2 1 4   100.43     LegendNANA
14:00 5.9 3.6 85 0.7 2 12   100.50     LegendNANA
15:00 6.2 2.7 78 0.0 3 12   100.51     LegendNANA
16:00 6.1 3.4 83 0.0 1 6   100.54     LegendNANA
17:00 6.3 3.1 80 0.0 2 2   100.57     LegendNANA
18:00 5.0 3.7 91 0.8 9 12   100.64     LegendNANA
19:00 4.7 3.4 91 0.0 8 8   100.66     LegendNANA
20:00 4.5 3.4 93 0.0 9 7   100.70     LegendNANA
21:00 4.1 3.1 93 0.0 11 5   100.76     LegendNANA
22:00 3.9 3.0 94 0.0 12 5   100.78     LegendNANA
23:00 3.5 2.7 95 0.0 15 2   100.79     LegendNANA

Notes on Data Quality.

Legend

  • E = Estimated
  • M = Missing
  • NA = Not Available*
  • [empty] = Indicates an unobserved value
Date modified: